| time (UTC) | temp C | wind direction | speed KPH | gust KPH | rain 1hr cm | rain 24hr cm | rain mn cm | humidity % | barometer mb |
| 20260507231710 | 11 | 291 | 3.2 | 3.2 | 0.00 | 0.00 | 0.00 | 55 | 1011.0 |
| 20260507231207 | 12 | 333 | 4.8 | 9.7 | 0.00 | 0.00 | 0.00 | 54 | 1011.0 |
| 20260507230703 | 12 | 313 | 3.2 | 3.2 | 0.00 | 0.00 | 0.00 | 52 | 1010.8 |
| 20260507230201 | 12 | 313 | 3.2 | 3.2 | 0.00 | 0.00 | 0.00 | 53 | 1010.9 |
| 20260507225700 | 12 | 324 | 4.8 | 4.8 | 0.00 | 0.00 | 0.00 | 53 | 1010.8 |
| 20260507225157 | 12 | 317 | 4.8 | 8.0 | 0.00 | 0.00 | 0.00 | 52 | 1010.9 |
| 20260507224653 | 12 | 312 | 6.4 | 9.7 | 0.00 | 0.00 | 0.00 | 51 | 1010.5 |
| 20260507224150 | 12 | 317 | 8.0 | 9.7 | 0.00 | 0.00 | 0.00 | 49 | 1010.7 |
| 20260507223646 | 12 | 241 | 4.8 | 4.8 | 0.00 | 0.00 | 0.00 | 49 | 1010.6 |
| 20260507223143 | 13 | 19 | 8.0 | 9.7 | 0.00 | 0.00 | 0.00 | 48 | 1010.4 |
| 20260507222639 | 13 | 332 | 9.7 | 11.3 | 0.00 | 0.00 | 0.00 | 46 | 1010.5 |
| 20260507222136 | 12 | 336 | 8.0 | 11.3 | 0.00 | 0.00 | 0.00 | 47 | 1010.5 |
| 20260507221632 | 12 | 350 | 8.0 | 9.7 | 0.00 | 0.00 | 0.00 | 47 | 1010.4 |
| 20260507221129 | 13 | 339 | 8.0 | 11.3 | 0.00 | 0.00 | 0.00 | 47 | 1010.5 |
| 20260507220626 | 13 | 317 | 3.2 | 8.0 | 0.00 | 0.00 | 0.00 | 45 | 1010.3 |
| 20260507220124 | 13 | 277 | 1.6 | 3.2 | 0.00 | 0.00 | 0.00 | 42 | 1010.3 |
| 20260507215619 | 13 | 316 | 4.8 | 4.8 | 0.00 | 0.00 | 0.00 | 41 | 1010.2 |
| 20260507215118 | 14 | 297 | 8.0 | 9.7 | 0.00 | 0.00 | 0.00 | 41 | 1010.2 |
| 20260507214614 | 14 | 277 | 1.6 | 3.2 | 0.00 | 0.00 | 0.00 | 42 | 1010.1 |
| 20260507214111 | 14 | 294 | 3.2 | 3.2 | 0.00 | 0.00 | 0.00 | 44 | 1010.0 |
| 20260507213607 | 13 | 324 | 6.4 | 8.0 | 0.00 | 0.00 | 0.00 | 45 | 1010.0 |
| 20260507213104 | 13 | 291 | 3.2 | 3.2 | 0.00 | 0.00 | 0.00 | 43 | 1010.3 |
| 20260507212600 | 13 | 208 | 4.8 | 8.0 | 0.00 | 0.00 | 0.00 | 47 | 1010.3 |
| 20260507212057 | 13 | 204 | 4.8 | 9.7 | 0.00 | 0.00 | 0.00 | 44 | 1010.1 |
| 20260507211554 | 13 | 292 | 8.0 | 11.3 | 0.00 | 0.00 | 0.00 | 45 | 1010.0 |
| 20260507211050 | 13 | 152 | 6.4 | 8.0 | 0.00 | 0.00 | 0.00 | 44 | 1010.1 |
| 20260507210547 | 13 | 318 | 6.4 | 9.7 | 0.00 | 0.00 | 0.00 | 47 | 1009.7 |
| 20260507210044 | 13 | 328 | 8.0 | 9.7 | 0.00 | 0.00 | 0.00 | 43 | 1009.8 |
| 20260507205540 | 14 | 329 | 4.8 | 4.8 | 0.00 | 0.00 | 0.00 | 43 | 1010.0 |
| 20260507205037 | 14 | 311 | 9.7 | 12.9 | 0.00 | 0.00 | 0.00 | 43 | 1009.7 |
| 20260507204533 | 14 | 290 | 1.6 | 1.6 | 0.00 | 0.00 | 0.00 | 43 | 1010.0 |
| 20260507204031 | 15 | 327 | 11.3 | 12.9 | 0.00 | 0.00 | 0.00 | 41 | 1010.0 |
| 20260507203529 | 15 | 212 | 8.0 | 9.7 | 0.00 | 0.00 | 0.00 | 42 | 1010.0 |
| 20260507203026 | 15 | 327 | 9.7 | 11.3 | 0.00 | 0.00 | 0.00 | 42 | 1009.8 |
| 20260507202521 | 15 | 308 | 4.8 | 8.0 | 0.00 | 0.00 | 0.00 | 42 | 1009.7 |
| 20260507202018 | 16 | 295 | 3.2 | 4.8 | 0.00 | 0.00 | 0.00 | 41 | 1010.0 |
| 20260507201514 | 16 | 292 | 8.0 | 9.7 | 0.00 | 0.00 | 0.00 | 40 | 1010.1 |
| 20260507201010 | 16 | 254 | 8.0 | 11.3 | 0.00 | 0.00 | 0.00 | 43 | 1010.0 |
| 20260507200505 | 16 | 359 | 9.7 | 12.9 | 0.00 | 0.00 | 0.00 | 42 | 1010.2 |
| 20260507200001 | 15 | 298 | 4.8 | 8.0 | 0.00 | 0.00 | 0.00 | 40 | 1010.1 |
| 20260507194910 | 15 | 277 | 4.8 | 8.0 | 0.00 | 0.00 | 0.00 | 37 | 1010.3 |
| 20260507194407 | 15 | 277 | 4.8 | 8.0 | 0.00 | 0.00 | 0.00 | 37 | 1010.3 |
| 20260507193903 | 15 | 234 | 4.8 | 8.0 | 0.00 | 0.00 | 0.00 | 39 | 1010.2 |
| 20260507193400 | 15 | 287 | 6.4 | 8.0 | 0.00 | 0.00 | 0.00 | 38 | 1010.3 |
| 20260507182845 | 16 | 232 | 3.2 | 3.2 | 0.00 | 0.00 | 0.00 | 40 | 1010.8 |
| 20260507182341 | 16 | 232 | 3.2 | 3.2 | 0.00 | 0.00 | 0.00 | 40 | 1010.8 |
| 20260507181837 | 16 | 232 | 3.2 | 3.2 | 0.00 | 0.00 | 0.00 | 40 | 1010.8 |
| 20260507181333 | 15 | 262 | 6.4 | 8.0 | 0.00 | 0.00 | 0.00 | 42 | 1010.7 |
| 20260507180830 | 16 | 310 | 16.1 | 25.7 | 0.00 | 0.00 | 0.00 | 42 | 1010.8 |
| 20260507180327 | 16 | 205 | 1.6 | 1.6 | 0.00 | 0.00 | 0.00 | 39 | 1010.9 |
| 20260507175822 | 15 | 243 | 9.7 | 11.3 | 0.00 | 0.00 | 0.00 | 43 | 1010.8 |
| 20260507175320 | 16 | 174 | 3.2 | 4.8 | 0.00 | 0.00 | 0.00 | 41 | 1010.8 |
| 20260507174817 | 17 | 219 | 9.7 | 11.3 | 0.00 | 0.00 | 0.00 | 40 | 1010.9 |
| 20260507174315 | 16 | 273 | 4.8 | 9.7 | 0.00 | 0.00 | 0.00 | 43 | 1011.0 |
| 20260507173812 | 16 | 252 | 4.8 | 4.8 | 0.00 | 0.00 | 0.00 | 42 | 1010.9 |
| 20260507173309 | 15 | 257 | 8.0 | 9.7 | 0.00 | 0.00 | 0.00 | 43 | 1011.0 |
| 20260507172805 | 15 | 257 | 3.2 | 4.8 | 0.00 | 0.00 | 0.00 | 44 | 1011.1 |
| 20260507172306 | 16 | 220 | 4.8 | 8.0 | 0.00 | 0.00 | 0.00 | 43 | 1011.2 |
| 20260507171758 | 15 | 120 | 3.2 | 4.8 | 0.00 | 0.00 | 0.00 | 42 | 1011.3 |
| 20260507171255 | 15 | 232 | 6.4 | 8.0 | 0.00 | 0.00 | 0.00 | 39 | 1011.2 |
| 20260507170752 | 15 | 190 | 14.5 | 17.7 | 0.00 | 0.00 | 0.00 | 45 | 1011.5 |
| 20260507170248 | 14 | 329 | 8.0 | 11.3 | 0.00 | 0.00 | 0.00 | 44 | 1011.2 |
| 20260507165744 | 15 | 248 | 6.4 | 9.7 | 0.00 | 0.00 | 0.00 | 41 | 1011.4 |
| 20260507165241 | 15 | 45 | 4.8 | 4.8 | 0.00 | 0.00 | 0.00 | 45 | 1011.6 |
| 20260507164737 | 14 | 234 | 8.0 | 9.7 | 0.00 | 0.00 | 0.00 | 45 | 1011.5 |
| 20260507164234 | 13 | 223 | 8.0 | 11.3 | 0.00 | 0.00 | 0.00 | 45 | 1011.6 |
| 20260507163731 | 13 | 182 | 8.0 | 11.3 | 0.00 | 0.00 | 0.00 | 46 | 1011.5 |
| 20260507163229 | 13 | 290 | 1.6 | 1.6 | 0.00 | 0.00 | 0.00 | 46 | 1011.6 |
| 20260507162725 | 13 | 301 | 3.2 | 4.8 | 0.00 | 0.00 | 0.00 | 48 | 1011.8 |
| 20260507162221 | 12 | 357 | 6.4 | 9.7 | 0.00 | 0.00 | 0.00 | 48 | 1011.9 |
| 20260507161718 | 12 | 325 | 4.8 | 9.7 | 0.00 | 0.00 | 0.00 | 48 | 1012.0 |
| 20260507161214 | 12 | 220 | 4.8 | 4.8 | 0.00 | 0.00 | 0.00 | 47 | 1011.7 |
| 20260507160710 | 13 | 302 | 12.9 | 16.1 | 0.00 | 0.00 | 0.00 | 51 | 1011.7 |
| 20260507160207 | 13 | 329 | 6.4 | 8.0 | 0.00 | 0.00 | 0.00 | 48 | 1011.9 |
| 20260507155703 | 12 | 260 | 4.8 | 4.8 | 0.00 | 0.00 | 0.00 | 48 | 1012.0 |
| 20260507155159 | 12 | 183 | 4.8 | 4.8 | 0.00 | 0.00 | 0.00 | 47 | 1012.1 |
| 20260507154655 | 12 | 324 | 4.8 | 8.0 | 0.00 | 0.00 | 0.00 | 48 | 1012.2 |
| 20260507154153 | 12 | 320 | 12.9 | 14.5 | 0.00 | 0.00 | 0.00 | 51 | 1012.1 |
| 20260507153649 | 12 | 23 | 3.2 | 3.2 | 0.00 | 0.00 | 0.00 | 50 | 1012.2 |
| 20260507153146 | 12 | 348 | 11.3 | 12.9 | 0.00 | 0.00 | 0.00 | 50 | 1012.3 |
| 20260507152643 | 12 | 324 | 4.8 | 8.0 | 0.00 | 0.00 | 0.00 | 53 | 1012.1 |
| 20260507152138 | 12 | 259 | 3.2 | 3.2 | 0.00 | 0.00 | 0.00 | 51 | 1012.2 |
| 20260507151635 | 11 | 298 | 1.6 | 3.2 | 0.00 | 0.00 | 0.00 | 53 | 1012.5 |
| 20260507151132 | 12 | 324 | 8.0 | 9.7 | 0.00 | 0.00 | 0.00 | 51 | 1012.5 |
| 20260507150629 | 12 | 298 | 4.8 | 4.8 | 0.00 | 0.00 | 0.00 | 54 | 1012.4 |
| 20260507150125 | 12 | 236 | 1.6 | 3.2 | 0.00 | 0.00 | 0.00 | 51 | 1012.4 |
| 20260507145620 | 13 | 191 | 4.8 | 4.8 | 0.00 | 0.00 | 0.00 | 48 | 1012.4 |
| 20260507145118 | 13 | 330 | 8.0 | 9.7 | 0.00 | 0.00 | 0.00 | 53 | 1012.6 |
| 20260507144614 | 12 | 272 | 3.2 | 3.2 | 0.00 | 0.00 | 0.00 | 51 | 1012.6 |
| 20260507144113 | 12 | 257 | 4.8 | 8.0 | 0.00 | 0.00 | 0.00 | 51 | 1012.6 |
| 20260507143609 | 12 | 219 | 4.8 | 4.8 | 0.00 | 0.00 | 0.00 | 53 | 1012.9 |
| 20260507143106 | 12 | 311 | 8.0 | 11.3 | 0.00 | 0.00 | 0.00 | 54 | 1013.1 |
| 20260507142601 | 12 | 278 | 3.2 | 8.0 | 0.00 | 0.00 | 0.00 | 52 | 1013.1 |
| 20260507142059 | 12 | 295 | 3.2 | 4.8 | 0.00 | 0.00 | 0.00 | 53 | 1012.9 |
| 20260507141554 | 12 | 354 | 8.0 | 9.7 | 0.00 | 0.00 | 0.00 | 57 | 1013.1 |
| 20260507141051 | 12 | 270 | 1.6 | 3.2 | 0.00 | 0.00 | 0.00 | 54 | 1013.0 |
| 20260507140548 | 12 | 241 | 8.0 | 11.3 | 0.00 | 0.00 | 0.00 | 57 | 1013.1 |
| 20260507140046 | 11 | 95 | 1.6 | 1.6 | 0.00 | 0.00 | 0.00 | 59 | 1013.4 |
| 20260507135542 | 12 | 321 | 4.8 | 4.8 | 0.00 | 0.00 | 0.00 | 58 | 1013.3 |
| 20260507135040 | 11 | 202 | 6.4 | 8.0 | 0.00 | 0.00 | 0.00 | 62 | 1013.4 |
| 20260507134536 | 11 | 202 | 9.7 | 9.7 | 0.00 | 0.00 | 0.00 | 61 | 1013.3 |
| 20260507134032 | 11 | 331 | 8.0 | 12.9 | 0.00 | 0.00 | 0.00 | 62 | 1013.3 |
| 20260507133528 | 11 | 301 | 1.6 | 1.6 | 0.00 | 0.00 | 0.00 | 61 | 1013.4 |
| 20260507133027 | 11 | 212 | 6.4 | 9.7 | 0.00 | 0.00 | 0.00 | 62 | 1013.5 |
| 20260507132523 | 11 | 233 | 1.6 | 1.6 | 0.00 | 0.00 | 0.00 | 63 | 1013.5 |
| 20260507132019 | 10 | 267 | 6.4 | 11.3 | 0.00 | 0.00 | 0.00 | 62 | 1013.7 |
| 20260507131516 | 10 | 278 | 6.4 | 9.7 | 0.00 | 0.00 | 0.00 | 62 | 1013.5 |
| 20260507131013 | 10 | 233 | 1.6 | 1.6 | 0.00 | 0.00 | 0.00 | 63 | 1013.5 |
| 20260507130510 | 10 | 246 | 4.8 | 8.0 | 0.00 | 0.00 | 0.00 | 64 | 1013.6 |
| 20260507130009 | 9 | 189 | 4.8 | 4.8 | 0.00 | 0.00 | 0.00 | 65 | 1013.6 |
| 20260507125507 | 9 | 214 | 1.6 | 3.2 | 0.00 | 0.00 | 0.00 | 68 | 1013.6 |
| 20260507125003 | 8 | 212 | 1.6 | 1.6 | 0.00 | 0.00 | 0.00 | 69 | 1013.5 |
| 20260507124500 | 9 | 205 | 4.8 | 4.8 | 0.00 | 0.00 | 0.00 | 67 | 1013.4 |
| 20260507123958 | 8 | 215 | 9.7 | 11.3 | 0.00 | 0.00 | 0.00 | 70 | 1013.5 |
| 20260507123455 | 7 | 210 | 1.6 | 1.6 | 0.00 | 0.00 | 0.00 | 73 | 1013.4 |
| 20260507122951 | 8 | 210 | 4.8 | 4.8 | 0.00 | 0.00 | 0.00 | 70 | 1013.4 |
| 20260507122447 | 8 | 216 | 0.0 | 1.6 | 0.00 | 0.00 | 0.00 | 75 | 1013.7 |
| 20260507121943 | 8 | 219 | 0.0 | 1.6 | 0.00 | 0.00 | 0.00 | 78 | 1013.5 |
| 20260507121438 | 7 | 162 | 1.6 | 1.6 | 0.00 | 0.00 | 0.00 | 80 | 1013.6 |
| 20260507120935 | 7 | 223 | 0.0 | 0.0 | 0.00 | 0.00 | 0.00 | 83 | 1013.5 |
| 20260507120431 | 6 | 300 | 1.6 | 1.6 | 0.00 | 0.00 | 0.00 | 88 | 1013.5 |
| 20260507115928 | 6 | 268 | 0.0 | 1.6 | 0.00 | 0.00 | 0.00 | 95 | 1013.7 |
| 20260507115424 | 4 | 306 | 1.6 | 1.6 | 0.00 | 0.00 | 0.00 | 97 | 1013.7 |
| 20260507114920 | 4 | 299 | 0.0 | 0.0 | 0.00 | 0.00 | 0.00 | 98 | 1013.6 |
| 20260507114417 | 3 | 298 | 0.0 | 0.0 | 0.00 | 0.00 | 0.00 | 99 | 1013.7 |
| 20260507113914 | 3 | 298 | 0.0 | 0.0 | 0.00 | 0.00 | 0.00 | 99 | 1013.6 |
| 20260507113411 | 2 | 299 | 0.0 | 0.0 | 0.00 | 0.00 | 0.00 | 99 | 1013.4 |
| 20260507112908 | 1 | 299 | 0.0 | 0.0 | 0.00 | 0.00 | 0.00 | 99 | 1013.4 |
| 20260507112406 | 1 | 299 | 0.0 | 0.0 | 0.00 | 0.00 | 0.00 | 99 | 1013.3 |
| 20260507111904 | 0 | 299 | 0.0 | 0.0 | 0.00 | 0.00 | 0.00 | 99 | 1013.6 |
| 20260507111400 | 0 | 299 | 0.0 | 0.0 | 0.00 | 0.00 | 0.00 | 99 | 1013.3 |
| 20260507110856 | 0 | 299 | 0.0 | 0.0 | 0.00 | 0.00 | 0.00 | 99 | 1013.4 |
| 20260507110352 | 0 | 299 | 0.0 | 0.0 | 0.00 | 0.00 | 0.00 | 99 | 1013.5 |
| 20260507105850 | 0 | 299 | 0.0 | 0.0 | 0.00 | 0.00 | 0.00 | 99 | 1013.6 |
| 20260507105346 | 0 | 299 | 0.0 | 0.0 | 0.00 | 0.00 | 0.00 | 99 | 1013.5 |
| 20260507104843 | 0 | 299 | 0.0 | 0.0 | 0.00 | 0.00 | 0.00 | 99 | 1013.3 |
| 20260507104339 | 0 | 299 | 0.0 | 0.0 | 0.00 | 0.00 | 0.00 | 99 | 1013.2 |
| 20260507103835 | 0 | 299 | 0.0 | 0.0 | 0.00 | 0.00 | 0.00 | 99 | 1013.4 |
| 20260507103332 | 0 | 299 | 0.0 | 0.0 | 0.00 | 0.00 | 0.00 | 99 | 1013.4 |
| 20260507102828 | 0 | 299 | 0.0 | 0.0 | 0.00 | 0.00 | 0.00 | 99 | 1013.2 |
| 20260507102325 | 0 | 299 | 0.0 | 0.0 | 0.00 | 0.00 | 0.00 | 99 | 1013.1 |
| 20260507101822 | 0 | 299 | 0.0 | 0.0 | 0.00 | 0.00 | 0.00 | 99 | 1013.3 |
| 20260507101316 | 0 | 299 | 0.0 | 0.0 | 0.00 | 0.00 | 0.00 | 99 | 1013.0 |
| 20260507100813 | 0 | 299 | 0.0 | 0.0 | 0.00 | 0.00 | 0.00 | 99 | 1013.1 |
| 20260507100312 | 0 | 299 | 0.0 | 0.0 | 0.00 | 0.00 | 0.00 | 99 | 1013.0 |
| 20260507095810 | 0 | 299 | 0.0 | 0.0 | 0.00 | 0.00 | 0.00 | 99 | 1013.1 |
| 20260507095306 | 0 | 299 | 0.0 | 0.0 | 0.00 | 0.00 | 0.00 | 98 | 1013.0 |
| 20260507094803 | 0 | 299 | 0.0 | 0.0 | 0.00 | 0.00 | 0.00 | 99 | 1013.1 |
| 20260507094259 | 0 | 299 | 0.0 | 0.0 | 0.00 | 0.00 | 0.00 | 98 | 1013.0 |
| 20260507093756 | 0 | 299 | 0.0 | 0.0 | 0.00 | 0.00 | 0.00 | 98 | 1013.1 |
| 20260507093255 | 0 | 299 | 0.0 | 0.0 | 0.00 | 0.00 | 0.00 | 98 | 1013.2 |
| 20260507092752 | 0 | 299 | 0.0 | 0.0 | 0.00 | 0.00 | 0.00 | 98 | 1013.1 |
| 20260507092248 | 0 | 299 | 0.0 | 0.0 | 0.00 | 0.00 | 0.00 | 98 | 1013.1 |
| 20260507091745 | 0 | 299 | 0.0 | 0.0 | 0.00 | 0.00 | 0.00 | 98 | 1013.2 |
| 20260507091242 | 0 | 299 | 0.0 | 0.0 | 0.00 | 0.00 | 0.00 | 98 | 1013.1 |
| 20260507090737 | 0 | 299 | 0.0 | 0.0 | 0.00 | 0.00 | 0.00 | 98 | 1013.2 |
| 20260507090234 | 0 | 299 | 0.0 | 0.0 | 0.00 | 0.00 | 0.00 | 98 | 1013.4 |
| 20260507085731 | 0 | 299 | 0.0 | 0.0 | 0.00 | 0.00 | 0.00 | 98 | 1013.2 |
| 20260507085227 | 0 | 299 | 0.0 | 0.0 | 0.00 | 0.00 | 0.00 | 98 | 1013.2 |
| 20260507084725 | 0 | 299 | 0.0 | 0.0 | 0.00 | 0.00 | 0.00 | 98 | 1013.4 |
| 20260507084221 | 0 | 299 | 1.6 | 1.6 | 0.00 | 0.00 | 0.00 | 98 | 1013.3 |
| 20260507083719 | 1 | 299 | 1.6 | 1.6 | 0.00 | 0.00 | 0.00 | 97 | 1013.1 |
| 20260507083215 | 1 | 299 | 0.0 | 0.0 | 0.00 | 0.00 | 0.00 | 97 | 1013.2 |
| 20260507082711 | 1 | 299 | 0.0 | 0.0 | 0.00 | 0.00 | 0.00 | 97 | 1013.3 |
| 20260507082207 | 1 | 299 | 0.0 | 0.0 | 0.00 | 0.00 | 0.00 | 97 | 1013.3 |
| 20260507081704 | 1 | 299 | 0.0 | 1.6 | 0.00 | 0.00 | 0.00 | 97 | 1013.3 |
| 20260507081200 | 1 | 299 | 1.6 | 1.6 | 0.00 | 0.00 | 0.00 | 97 | 1013.3 |
| 20260507080657 | 1 | 299 | 1.6 | 1.6 | 0.00 | 0.00 | 0.00 | 97 | 1013.5 |
| 20260507080153 | 1 | 300 | 1.6 | 1.6 | 0.00 | 0.00 | 0.00 | 96 | 1013.3 |
| 20260507075648 | 1 | 300 | 0.0 | 0.0 | 0.00 | 0.00 | 0.00 | 97 | 1013.4 |
| 20260507075145 | 1 | 300 | 0.0 | 0.0 | 0.00 | 0.00 | 0.00 | 96 | 1013.5 |
| 20260507074641 | 1 | 300 | 0.0 | 0.0 | 0.00 | 0.00 | 0.00 | 96 | 1013.5 |
| 20260507074140 | 1 | 300 | 0.0 | 0.0 | 0.00 | 0.00 | 0.00 | 96 | 1013.5 |
| 20260507073636 | 2 | 300 | 0.0 | 0.0 | 0.00 | 0.00 | 0.00 | 96 | 1013.5 |
| 20260507073132 | 2 | 300 | 1.6 | 1.6 | 0.00 | 0.00 | 0.00 | 96 | 1013.4 |
| 20260507072630 | 2 | 300 | 1.6 | 1.6 | 0.00 | 0.00 | 0.00 | 96 | 1013.5 |
| 20260507072127 | 2 | 300 | 0.0 | 1.6 | 0.00 | 0.00 | 0.00 | 95 | 1013.4 |
| 20260507071625 | 2 | 300 | 0.0 | 0.0 | 0.00 | 0.00 | 0.00 | 95 | 1013.3 |
| 20260507071121 | 2 | 300 | 1.6 | 1.6 | 0.00 | 0.00 | 0.00 | 95 | 1013.4 |
| 20260507070618 | 2 | 300 | 0.0 | 0.0 | 0.00 | 0.00 | 0.00 | 94 | 1013.4 |
| 20260507070115 | 2 | 300 | 0.0 | 0.0 | 0.00 | 0.00 | 0.00 | 94 | 1013.3 |
| 20260507065611 | 2 | 300 | 0.0 | 0.0 | 0.00 | 0.00 | 0.00 | 94 | 1013.7 |
| 20260507065108 | 2 | 300 | 0.0 | 0.0 | 0.00 | 0.00 | 0.00 | 94 | 1013.5 |
| 20260507064606 | 3 | 300 | 1.6 | 1.6 | 0.00 | 0.00 | 0.00 | 94 | 1013.3 |
| 20260507064105 | 3 | 300 | 1.6 | 1.6 | 0.00 | 0.00 | 0.00 | 93 | 1013.2 |
| 20260507063602 | 3 | 300 | 1.6 | 1.6 | 0.00 | 0.00 | 0.00 | 93 | 1013.4 |
| 20260507063059 | 3 | 300 | 0.0 | 1.6 | 0.00 | 0.00 | 0.00 | 93 | 1013.5 |
| 20260507062555 | 4 | 300 | 1.6 | 1.6 | 0.00 | 0.00 | 0.00 | 91 | 1013.8 |
| 20260507062053 | 4 | 301 | 0.0 | 0.0 | 0.00 | 0.00 | 0.00 | 91 | 1013.6 |
| 20260507061550 | 4 | 301 | 0.0 | 0.0 | 0.00 | 0.00 | 0.00 | 90 | 1013.8 |
| 20260507061048 | 4 | 300 | 0.0 | 0.0 | 0.00 | 0.00 | 0.00 | 90 | 1013.7 |
| 20260507060546 | 5 | 300 | 0.0 | 0.0 | 0.00 | 0.00 | 0.00 | 89 | 1013.5 |
| 20260507060042 | 5 | 300 | 0.0 | 0.0 | 0.00 | 0.00 | 0.00 | 89 | 1013.7 |
| 20260507055542 | 5 | 300 | 1.6 | 1.6 | 0.00 | 0.00 | 0.00 | 89 | 1013.6 |
| 20260507055039 | 5 | 300 | 1.6 | 1.6 | 0.00 | 0.00 | 0.00 | 88 | 1013.7 |
| 20260507054535 | 5 | 302 | 1.6 | 1.6 | 0.00 | 0.00 | 0.00 | 88 | 1013.7 |
| 20260507054032 | 5 | 303 | 0.0 | 0.0 | 0.00 | 0.00 | 0.00 | 87 | 1013.6 |
| 20260507053530 | 5 | 303 | 0.0 | 0.0 | 0.00 | 0.00 | 0.00 | 87 | 1013.7 |
| 20260507053029 | 5 | 303 | 0.0 | 0.0 | 0.00 | 0.00 | 0.00 | 86 | 1014.1 |
| 20260507052526 | 6 | 303 | 0.0 | 0.0 | 0.00 | 0.00 | 0.00 | 86 | 1014.0 |
| 20260507052022 | 6 | 303 | 0.0 | 0.0 | 0.00 | 0.00 | 0.00 | 84 | 1014.0 |
| 20260507051520 | 6 | 303 | 0.0 | 0.0 | 0.00 | 0.00 | 0.00 | 83 | 1014.1 |
| 20260507051017 | 6 | 303 | 0.0 | 0.0 | 0.00 | 0.00 | 0.00 | 82 | 1014.0 |
| 20260507050513 | 6 | 303 | 0.0 | 0.0 | 0.00 | 0.00 | 0.00 | 81 | 1014.1 |
| 20260507050010 | 6 | 303 | 0.0 | 0.0 | 0.00 | 0.00 | 0.00 | 81 | 1014.3 |
| 20260507045507 | 6 | 303 | 0.0 | 0.0 | 0.00 | 0.00 | 0.00 | 84 | 1014.2 |
| 20260507045004 | 6 | 303 | 0.0 | 0.0 | 0.00 | 0.00 | 0.00 | 85 | 1014.2 |
| 20260507044501 | 6 | 304 | 0.0 | 0.0 | 0.00 | 0.00 | 0.00 | 83 | 1014.1 |
| 20260507043957 | 6 | 304 | 0.0 | 0.0 | 0.00 | 0.00 | 0.00 | 86 | 1014.1 |
| 20260507043453 | 6 | 304 | 0.0 | 0.0 | 0.00 | 0.00 | 0.00 | 84 | 1014.3 |
| 20260507042950 | 6 | 304 | 0.0 | 0.0 | 0.00 | 0.00 | 0.00 | 83 | 1014.0 |
| 20260507042446 | 6 | 304 | 0.0 | 0.0 | 0.00 | 0.00 | 0.00 | 81 | 1014.1 |
| 20260507041942 | 6 | 304 | 0.0 | 0.0 | 0.00 | 0.00 | 0.00 | 82 | 1014.1 |
| 20260507041439 | 7 | 304 | 0.0 | 0.0 | 0.00 | 0.00 | 0.00 | 80 | 1014.2 |
| 20260507040936 | 7 | 304 | 1.6 | 3.2 | 0.00 | 0.00 | 0.00 | 75 | 1014.4 |
| 20260507040432 | 7 | 303 | 1.6 | 3.2 | 0.00 | 0.00 | 0.00 | 74 | 1014.4 |
| 20260507035928 | 7 | 303 | 0.0 | 1.6 | 0.00 | 1.14 | 1.14 | 74 | 1014.1 |
| 20260507035425 | 7 | 304 | 1.6 | 3.2 | 0.00 | 1.14 | 1.14 | 74 | 1014.1 |
| 20260507034921 | 7 | 303 | 3.2 | 3.2 | 0.00 | 1.14 | 1.14 | 73 | 1014.1 |
| 20260507034418 | 7 | 305 | 3.2 | 3.2 | 0.00 | 1.14 | 1.14 | 74 | 1014.0 |
| 20260507033916 | 7 | 301 | 1.6 | 1.6 | 0.00 | 1.14 | 1.14 | 73 | 1013.9 |
| 20260507033414 | 7 | 290 | 1.6 | 3.2 | 0.00 | 1.14 | 1.14 | 72 | 1013.9 |
| 20260507032911 | 7 | 314 | 1.6 | 1.6 | 0.00 | 1.14 | 1.14 | 72 | 1013.9 |
| 20260507032408 | 7 | 314 | 4.8 | 4.8 | 0.00 | 1.14 | 1.14 | 73 | 1014.0 |
| 20260507031904 | 7 | 315 | 3.2 | 3.2 | 0.00 | 1.14 | 1.14 | 71 | 1013.9 |
| 20260507031401 | 7 | 331 | 1.6 | 1.6 | 0.00 | 1.14 | 1.14 | 71 | 1013.9 |
| 20260507030857 | 7 | 338 | 3.2 | 3.2 | 0.00 | 1.14 | 1.14 | 71 | 1013.7 |
| 20260507030355 | 7 | 313 | 6.4 | 8.0 | 0.00 | 1.14 | 1.14 | 72 | 1013.9 |
| 20260507025851 | 7 | 311 | 3.2 | 3.2 | 0.00 | 1.14 | 1.14 | 75 | 1014.0 |
| 20260507025349 | 7 | 325 | 3.2 | 3.2 | 0.00 | 1.14 | 1.14 | 74 | 1013.7 |
| 20260507024846 | 7 | 317 | 3.2 | 3.2 | 0.00 | 1.14 | 1.14 | 72 | 1013.7 |
| 20260507024343 | 6 | 304 | 4.8 | 8.0 | 0.00 | 1.14 | 1.14 | 78 | 1013.8 |
| 20260507023839 | 6 | 290 | 3.2 | 3.2 | 0.00 | 1.14 | 1.14 | 84 | 1013.7 |
| 20260507023336 | 6 | 291 | 1.6 | 1.6 | 0.00 | 1.14 | 1.14 | 83 | 1013.6 |
| 20260507022834 | 6 | 278 | 0.0 | 0.0 | 0.00 | 1.14 | 1.14 | 82 | 1013.6 |
| 20260507022330 | 6 | 278 | 0.0 | 0.0 | 0.00 | 1.14 | 1.14 | 83 | 1013.5 |
| 20260507021826 | 6 | 313 | 0.0 | 0.0 | 0.00 | 1.14 | 1.14 | 78 | 1013.5 |
| 20260507021322 | 6 | 35 | 0.0 | 0.0 | 0.00 | 1.14 | 1.14 | 79 | 1013.2 |
| 20260507020820 | 6 | 316 | 0.0 | 0.0 | 0.00 | 1.14 | 1.14 | 78 | 1013.5 |
| 20260507020316 | 7 | 316 | 0.0 | 0.0 | 0.00 | 1.14 | 1.14 | 77 | 1013.4 |
| 20260507015813 | 7 | 316 | 0.0 | 0.0 | 0.00 | 1.14 | 1.14 | 75 | 1013.3 |
| 20260507015311 | 7 | 316 | 0.0 | 0.0 | 0.00 | 1.14 | 1.14 | 74 | 1013.2 |
| 20260507014808 | 7 | 76 | 0.0 | 0.0 | 0.00 | 1.14 | 1.14 | 73 | 1013.1 |
| 20260507014304 | 7 | 305 | 0.0 | 0.0 | 0.00 | 1.14 | 1.14 | 71 | 1013.2 |
| 20260507013800 | 8 | 305 | 1.6 | 1.6 | 0.00 | 1.14 | 1.14 | 72 | 1013.2 |
| 20260507013258 | 8 | 112 | 1.6 | 1.6 | 0.00 | 1.14 | 1.14 | 69 | 1013.1 |
| 20260507012755 | 8 | 83 | 0.0 | 0.0 | 0.00 | 1.14 | 1.14 | 66 | 1013.2 |
| 20260507012250 | 8 | 310 | 1.6 | 1.6 | 0.00 | 1.14 | 1.14 | 67 | 1013.3 |
| 20260507011748 | 8 | 310 | 0.0 | 1.6 | 0.00 | 1.14 | 1.14 | 68 | 1013.1 |
| 20260507011245 | 8 | 312 | 0.0 | 0.0 | 0.00 | 1.14 | 1.14 | 61 | 1013.3 |
| 20260507010744 | 8 | 318 | 3.2 | 3.2 | 0.00 | 1.14 | 1.14 | 60 | 1013.3 |
| 20260507010241 | 8 | 293 | 1.6 | 1.6 | 0.00 | 1.14 | 1.14 | 59 | 1013.3 |
| 20260507005738 | 8 | 301 | 1.6 | 3.2 | 0.00 | 1.14 | 1.14 | 59 | 1013.5 |
| 20260507005234 | 8 | 30 | 1.6 | 3.2 | 0.00 | 1.14 | 1.14 | 60 | 1013.3 |
| 20260507004731 | 9 | 331 | 4.8 | 4.8 | 0.00 | 1.14 | 1.14 | 59 | 1013.5 |
| 20260507004229 | 9 | 330 | 9.7 | 11.3 | 0.00 | 1.14 | 1.14 | 57 | 1013.6 |
| 20260507003725 | 9 | 353 | 8.0 | 9.7 | 0.00 | 1.14 | 1.14 | 58 | 1013.4 |
| 20260507003220 | 9 | 350 | 9.7 | 11.3 | 0.00 | 1.14 | 1.14 | 58 | 1013.4 |
| 20260507002717 | 9 | 43 | 4.8 | 8.0 | 0.00 | 1.14 | 1.14 | 59 | 1013.4 |
| 20260507002213 | 9 | 334 | 8.0 | 9.7 | 0.00 | 1.14 | 1.14 | 60 | 1013.4 |
| 20260507001709 | 9 | 27 | 8.0 | 11.3 | 0.00 | 1.14 | 1.14 | 58 | 1013.4 |
| 20260507001207 | 10 | 330 | 8.0 | 9.7 | 0.00 | 1.14 | 1.14 | 60 | 1013.6 |
| 20260507000703 | 10 | 296 | 6.4 | 9.7 | 0.00 | 1.14 | 1.14 | 61 | 1013.4 |
| 20260507000159 | 10 | 325 | 4.8 | 4.8 | 0.00 | 1.14 | 1.14 | 61 | 1013.4 |
| 20260506235656 | 10 | 348 | 4.8 | 4.8 | 0.00 | 1.14 | 1.14 | 63 | 1013.3 |
| 20260506235151 | 10 | 296 | 4.8 | 4.8 | 0.00 | 1.14 | 1.14 | 61 | 1013.1 |
| 20260506234648 | 10 | 295 | 3.2 | 3.2 | 0.00 | 1.14 | 1.14 | 60 | 1013.1 |
| 20260506234145 | 10 | 314 | 6.4 | 8.0 | 0.00 | 1.14 | 1.14 | 60 | 1013.2 |
| 20260506233643 | 10 | 12 | 8.0 | 9.7 | 0.00 | 1.14 | 1.14 | 61 | 1013.2 |
| 20260506233139 | 10 | 317 | 4.8 | 4.8 | 0.00 | 1.14 | 1.14 | 59 | 1013.0 |
| 20260506232636 | 10 | 301 | 4.8 | 4.8 | 0.00 | 1.14 | 1.14 | 60 | 1013.1 |
| 20260506232131 | 10 | 348 | 6.4 | 8.0 | 0.00 | 1.14 | 1.14 | 58 | 1012.8 |